| time (UTC) | temp F | wind direction | speed knots | gust knots | rain 1hr in | rain 24hr in | rain mn in | humidity % | barometer mb |
| 20260504184504 | 59 | 300 | 0.0 | 0.0 | 0.00 | 0.02 | 0.00 | 38 | 1017.9 |
| 20260504183005 | 59 | 314 | 0.0 | 0.0 | 0.00 | 0.02 | 0.00 | 39 | 1017.3 |
| 20260504180005 | 59 | 349 | 0.0 | 0.0 | 0.00 | 0.02 | 0.00 | 40 | 1016.6 |
| 20260504174502 | 59 | 359 | 0.0 | 0.0 | 0.00 | 0.02 | 0.00 | 40 | 1016.3 |
| 20260504173004 | 59 | 359 | 0.0 | 0.0 | 0.00 | 0.02 | 0.00 | 40 | 1015.6 |
| 20260504171508 | 59 | 323 | 0.0 | 0.0 | 0.00 | 0.02 | 0.00 | 40 | 1015.1 |
| 20260504081507 | 71 | 120 | 4.3 | 11.3 | 0.00 | 0.02 | 0.02 | 45 | 1000.5 |
| 20260504050008 | 77 | 359 | 5.2 | 13.9 | 0.00 | 0.02 | 0.02 | 46 | 999.2 |
| 20260504044505 | 78 | 336 | 5.2 | 16.5 | 0.00 | 0.02 | 0.02 | 44 | 999.1 |
| 20260504043007 | 79 | 339 | 2.6 | 13.0 | 0.00 | 0.02 | 0.02 | 46 | 999.2 |
| 20260504041505 | 79 | 146 | 2.6 | 9.6 | 0.00 | 0.02 | 0.02 | 45 | 999.5 |
| 20260504040008 | 79 | 222 | 3.5 | 8.7 | 0.00 | 0.02 | 0.02 | 47 | 999.9 |
| 20260504034505 | 78 | 298 | 2.6 | 7.0 | 0.00 | 0.02 | 0.02 | 47 | 1000.0 |
| 20260504033007 | 77 | 298 | 4.3 | 10.4 | 0.00 | 0.02 | 0.02 | 48 | 1000.2 |
| 20260504031505 | 77 | 338 | 0.0 | 0.0 | 0.00 | 0.02 | 0.02 | 50 | 1000.1 |
| 20260504030008 | 77 | 51 | 0.9 | 3.5 | 0.00 | 0.02 | 0.02 | 60 | 1000.6 |
| 20260504024505 | 76 | 208 | 0.0 | 1.7 | 0.00 | 0.02 | 0.02 | 80 | 1000.8 |
| 20260504021510 | 75 | 359 | 0.9 | 3.5 | 0.00 | 0.02 | 0.02 | 82 | 1000.9 |
| 20260504020007 | 77 | 359 | 1.7 | 4.3 | 0.00 | 0.02 | 0.02 | 56 | 1000.9 |
| 20260504013005 | 77 | 138 | 1.7 | 7.8 | 0.00 | 0.02 | 0.02 | 89 | 1001.1 |
| 20260504011508 | 76 | 359 | 1.7 | 5.2 | 0.00 | 0.02 | 0.02 | 97 | 1001.1 |
| 20260504010005 | 76 | 322 | 0.9 | 5.2 | 0.00 | 0.02 | 0.02 | 100 | 1001.0 |
| 20260504004503 | 76 | 278 | 1.7 | 7.0 | 0.00 | 0.02 | 0.02 | 100 | 1001.2 |
| 20260504001507 | 73 | 158 | 1.7 | 7.8 | 0.00 | 0.02 | 0.02 | 100 | 1001.3 |
| 20260504000004 | 71 | 124 | 4.3 | 10.4 | 0.00 | 0.02 | 0.02 | 100 | 1001.4 |
| 20260503234507 | 70 | 93 | 4.3 | 13.0 | 0.00 | 0.02 | 0.02 | 100 | 1001.2 |
| 20260503233003 | 69 | 162 | 4.3 | 17.4 | 0.00 | 0.02 | 0.02 | 100 | 1001.1 |
| 20260503230004 | 69 | 359 | 1.7 | 7.8 | 0.00 | 0.02 | 0.02 | 100 | 1001.9 |
| 20260503224507 | 70 | 197 | 6.1 | 14.8 | 0.00 | 0.02 | 0.02 | 100 | 1001.8 |
| 20260503223003 | 70 | 166 | 2.6 | 7.8 | 0.00 | 0.02 | 0.02 | 100 | 1001.6 |
| 20260503221506 | 70 | 76 | 2.6 | 8.7 | 0.00 | 0.02 | 0.02 | 100 | 1001.6 |
| 20260503214506 | 69 | 298 | 5.2 | 10.4 | 0.00 | 0.02 | 0.02 | 100 | 1001.5 |
| 20260503213002 | 69 | 288 | 5.2 | 17.4 | 0.00 | 0.02 | 0.02 | 100 | 1001.3 |
| 20260503211506 | 69 | 124 | 6.1 | 13.0 | 0.00 | 0.02 | 0.02 | 100 | 1001.3 |
| 20260503210003 | 69 | 65 | 2.6 | 10.4 | 0.00 | 0.00 | 0.00 | 100 | 1001.4 |
| 20260503203036 | 69 | 239 | 7.8 | 26.1 | 0.00 | 0.00 | 0.00 | 100 | 1001.6 |
| 20260503201506 | 69 | 329 | 2.6 | 8.7 | 0.00 | 0.00 | 0.00 | 100 | 1001.6 |
| 20260503200004 | 69 | 14 | 1.7 | 7.8 | 0.00 | 0.00 | 0.00 | 100 | 1001.5 |
| 20260503194505 | 69 | 359 | 6.1 | 15.6 | 0.00 | 0.00 | 0.00 | 100 | 1001.6 |
| 20260503193003 | 69 | 132 | 13.0 | 33.0 | 0.00 | 0.00 | 0.00 | 100 | 1001.7 |
| 20260503191505 | 68 | 359 | 13.0 | 29.5 | 0.00 | 0.00 | 0.00 | 100 | 1001.5 |
| 20260503190008 | 68 | 221 | 9.6 | 29.5 | 0.00 | 0.00 | 0.00 | 100 | 1001.8 |